GLOBALSTAR M089 [+]

Last updated on Fri Dec 29 2023 00:02:56 GMT+0000 (Coordinated Universal Time)

1 37744U 11033F 23362.19351163 -.00000076 00000+0 15671-3 0 9994 2 37744 51.9954 16.2752 0000056 152.4918 282.5914 12.62270640577127
UTC large
Height (km)
Speed (km/s)
/
Latitude / Longitude
Inclination (degrees)
Orbital Period (minutes)
Azimuth
Elevation
Range (km)
Doppler Factor

Next 0 passes for location: London (51.5072 / 0.1276)

Sorry there are no passes over London.